Jamestown, NY

7:02 PM EDT on October 21, 2019 (GMT -0400)
Chautauqua County-Jamestown

Weather History for KJHW - September, 2019

Change the Weather History Date:

Thursday, September 19, 2019

  Actual Average Record
Temperature  
Mean Temperature 59 °F -  
Max Temperature 70 °F 71 °F 83 °F (1988)
Min Temperature 48 °F 46 °F 33 °F (1984)
Degree Days  
Heating Degree Days 6    
Growing Degree Days 9 (Base 50)    
Moisture  
Dew Point 49 °F    
Average Humidity 71    
Maximum Humidity 93    
Minimum Humidity 47    
Precipitation  
Precipitation 0.00 in - - ()
Sea Level Pressure  
Sea Level Pressure 30.29 in    
Wind  
Wind Speed 6 mph (SSE)    
Max Wind Speed 12 mph    
Max Gust Speed -    
Visibility 10 miles    
Events      
Averages and records for this station are not official NWS values.
T = Trace of Precipitation, MM = Missing Value Source: NWS Daily Summary

Daily Weather History Graph

Daily Weather History Graph

Search for Another Location

Airport or City:

Astronomy

Sep. 19, 2019 Rise Set
Actual Time 7:01 AM EDT 7:19 PM EDT
Civil Twilight 6:33 AM EDT 7:47 PM EDT
Nautical Twilight 6:00 AM EDT 8:20 PM EDT
Astronomical Twilight 5:26 AM EDT 8:54 PM EDT
Moon 10:22 PM EDT (9/19) 12:07 PM EDT (9/19)
Length of Visible Light 13h 14m
Length of Day
12h 18m
Waning Gibbous, 74% of the Moon is Illuminated
Sep 19
Waning Gibbous
Sep 21
Last Quarter
Sep 28
New
Oct 5
First Quarter
Oct 13
Full

Hourly Weather History & Observations

Time (EDT) Temp. Dew Point Humidity Pressure Visibility Wind Dir Wind Speed Gust Speed Precip Events Conditions
12:56 AM 55.9 °F 48.0 °F 75% 30.29 in 10.0 mi SE 5.8 mph - N/A   Clear
1:56 AM 54.0 °F 46.9 °F 77% 30.29 in 10.0 mi SSE 6.9 mph - N/A   Clear
2:56 AM 53.1 °F 46.9 °F 80% 30.29 in 10.0 mi SSE 3.5 mph - N/A   Clear
3:56 AM 52.0 °F 46.0 °F 80% 30.30 in 10.0 mi South 3.5 mph - N/A   Clear
4:56 AM 48.9 °F 46.9 °F 93% 30.29 in 10.0 mi South 5.8 mph - N/A   Clear
5:56 AM 50.0 °F 45.0 °F 83% 30.28 in 10.0 mi SSE 5.8 mph - N/A   Clear
6:56 AM 48.9 °F 45.0 °F 86% 30.30 in 10.0 mi SSE 8.1 mph - N/A   Clear
7:56 AM 48.9 °F 45.0 °F 86% 30.32 in 10.0 mi South 5.8 mph - N/A   Clear
8:56 AM 53.1 °F 46.0 °F 77% 30.33 in 10.0 mi South 8.1 mph - N/A   Clear
9:56 AM 57.0 °F 48.0 °F 72% 30.33 in 10.0 mi SSE 9.2 mph - N/A   Clear
10:56 AM 61.0 °F 50.0 °F 67% 30.32 in 10.0 mi SSE 9.2 mph - N/A   Clear
11:56 AM 63.0 °F 50.0 °F 63% 30.31 in 10.0 mi SSE 11.5 mph - N/A   Clear
12:56 PM 66.0 °F 51.1 °F 59% 30.30 in 10.0 mi SSE 8.1 mph - N/A   Clear
1:56 PM 68.0 °F 50.0 °F 52% 30.29 in 10.0 mi SSE 10.4 mph - N/A   Clear
2:56 PM 69.1 °F 50.0 °F 51% 30.28 in 10.0 mi Variable 6.9 mph - N/A   Clear
3:56 PM 69.1 °F 48.0 °F 47% 30.28 in 10.0 mi Variable 3.5 mph - N/A   Clear
4:56 PM 70.0 °F 48.9 °F 47% 30.25 in 10.0 mi SSE 10.4 mph - N/A   Clear
5:56 PM 68.0 °F 50.0 °F 52% 30.25 in 10.0 mi Variable 4.6 mph - N/A   Clear
6:56 PM 64.9 °F 52.0 °F 63% 30.25 in 10.0 mi SSE 3.5 mph - N/A   Clear
7:56 PM 62.1 °F 52.0 °F 70% 30.27 in 10.0 mi South 3.5 mph - N/A   Clear
8:56 PM 59.0 °F 51.1 °F 75% 30.28 in 10.0 mi South 4.6 mph - N/A   Clear
9:56 PM 57.9 °F 51.1 °F 78% 30.27 in 10.0 mi South 4.6 mph - N/A   Clear
10:56 PM 55.9 °F 51.1 °F 84% 30.27 in 10.0 mi South 5.8 mph - N/A   Clear
11:56 PM 55.0 °F 50.0 °F 83% 30.26 in 10.0 mi South 6.9 mph - N/A   Clear